Starlink 11359

operational
NORAD ID: 61884 Int'l Des: 2024-204 Owner: SPXS Country: US Constellation: starlink
LEOCIRCULAR

Über Starlink 11359

Beschreibung wird geladen...

Live-Position

3D-Globus wird geladen...

Nächste Überflüge

Höhenverlauf

Altitude vs Time

uPlot chart will show altitude changes over time

Zweizeiliger Elementsatz

1 61884U 24204L 25257.94634224 -.00000562 00000-0 21397-6 0 9996
2 61884 53.1590 142.5034 0001006 87.0970 273.0163 15.69706486 49310
Epoch: 14. Sept. 2025 • Age: 16 hours

Aktueller Status

Höhe 361.3 km
Geschwindigkeit 7.69 km/s
Subsatellitenpunkt -3.70°S, 105.52°E
Startdatum 9. Nov. 2024
Alter 0.8 years
Typ internet

Technische Details

Klassifizierung Payload
Masse 960.00 kg
Trockenmasse 910.00 kg
Gesamtmasse 960.00 kg
Länge 0.30 m
Durchmesser 4.10 m
Spannweite 29.00 m
Form Box + pan
Hersteller SPXS
Bus-Typ Starlink V2MD
Phasenstatus In Orbit
Besitzer/Staat SPXS/US

Große Konstellationen

Loading constellations...